{"data":{"norad_id":57026,"epoch":"2026-05-25T05:00:05.855904Z","epoch_age_seconds":60614,"freshness":"FRESH","line1":"1 57026U 23085Y   26145.20840111  .00015699  00000+0  46585-3 0  9993","line2":"2 57026  97.4935 258.1877 0006672 138.7202 221.4547 15.34878081163292","mean_motion":15.34878081,"eccentricity":0.0006672,"inclination_deg":97.4935,"raan_deg":258.1877,"arg_perigee_deg":138.7202,"mean_anomaly_deg":221.4547,"bstar":0.00046585,"rev_number":16329,"period_min":93.818526554358,"perigee_km":456.71939077636,"apogee_km":465.84591235941,"semimajor_km":6839.4196515679,"source":"CELESTRAK","updated_at":"2026-05-25T13:37:59.794483Z"}}